EHI
0 0 0 0 0 0 0 0 0 0 0 4 9 11 11 10 10 10 11 13 16 19 19 16 15 16 18 18 15 11 9 7 6 6 6 5 5 7 9 8 9 9 10 10
0 0 0 0 0 0 0 0 0 0 1 4 8 10 10 10 10 9 9 11 14 16 16 16 15 15 16 17 15 11 8 5 5 6 6 6 6 8 8 7 8 9 9 9
0 0 0 0 0 0 0 0 0 0 1 3 6 8 9 9 8 7 6 8 11 12 15 16 15 14 14 15 13 10 7 4 4 5 6 6 7 7 7 7 8 8 8 7
0 0 0 0 0 0 0 0 0 0 0 1 3 4 5 5 5 5 5 6 7 10 14 16 14 13 13 12 10 8 6 4 4 5 6 6 6 6 7 8 9 9 7 6
0 0 0 0 0 0 0 0 0 0 0 0 1 1 1 2 4 6 8 7 7 10 14 14 12 11 11 9 7 6 6 5 5 5 6 6 6 6 6 8 9 9 7 6
0 0 0 0 0 0 0 0 1 1 0 1 1 1 2 3 6 10 14 14 14 14 14 13 12 10 9 7 5 5 5 6 6 6 5 4 5 4 5 6 8 8 7 6
0 0 0 0 0 0 0 1 2 1 1 2 3 5 6 6 9 13 16 18 19 17 15 14 13 11 8 5 4 3 4 5 6 5 4 3 4 3 4 6 7 7 6 6
0 0 0 0 0 0 1 2 2 1 0 2 5 8 8 8 9 11 15 17 17 16 14 14 13 10 6 3 2 2 2 3 3 3 3 3 3 3 4 6 7 7 6 5
0 0 0 0 0 0 1 2 2 1 1 3 6 9 9 9 9 10 12 13 12 11 11 11 9 5 3 1 0 1 1 1 1 1 1 1 3 4 4 5 6 6 5 5
0 0 0 0 0 0 1 1 2 2 3 3 6 8 9 10 10 10 9 8 7 6 7 6 4 2 1 1 1 1 0 0 0 0 0 1 2 3 3 3 4 4 4 4
0 0 0 0 0 0 0 1 2 3 2 2 4 6 7 8 11 11 8 5 4 4 5 5 3 2 2 3 3 2 1 1 0 0 0 0 1 2 2 2 3 3 2 2
0 0 0 0 0 0 0 1 2 3 2 2 4 6 6 7 10 10 8 6 4 3 3 4 4 3 4 4 4 3 3 2 1 0 0 0 0 1 1 1 1 1 1 1
0 0 0 0 0 0 0 0 1 2 3 3 5 8 8 7 9 9 8 5 3 1 1 3 3 2 3 4 4 4 3 3 1 1 0 0 0 0 0 0 0 0 0 0
0 0 0 0 0 0 0 0 0 2 3 4 7 9 9 9 9 9 7 4 1 0 0 2 3 3 2 2 4 4 4 3 3 2 1 0 0 0 0 0 0 0 0 0
0 0 0 0 1 0 0 1 1 2 3 5 7 9 9 9 8 8 7 4 1 0 1 2 4 4 2 2 2 3 3 3 3 2 1 0 0 0 0 0 0 0 1 1
0 0 0 0 0 0 1 2 3 3 3 4 6 7 8 8 7 7 7 5 2 1 1 3 4 4 3 2 2 2 2 2 2 2 1 0 0 0 0 0 0 0 1 1
0 0 0 0 0 0 1 2 2 2 2 2 3 5 6 7 7 7 7 5 3 2 2 3 5 3 2 2 2 1 1 1 1 1 0 0 0 0 0 0 0 0 0 1
0 0 0 0 0 0 1 1 1 1 1 1 1 2 5 6 7 7 6 4 3 3 4 5 5 3 1 1 1 2 2 1 1 1 0 0 0 0 0 0 0 0 0 0
0 0 0 0 0 0 0 0 0 0 0 0 0 1 2 4 5 7 6 4 3 4 6 6 4 3 2 2 1 1 2 2 2 1 1 1 0 0 0 0 0 0 0 0
0 0 0 0 0 0 0 0 0 0 0 0 0 0 1 1 3 4 4 3 3 4 5 5 4 5 4 2 1 0 1 2 2 2 2 2 1 0 0 0 0 0 0 0
0 0 0 0 0 0 0 0 0 0 0 0 0 0 0 0 1 1 1 1 1 2 3 2 3 4 4 2 0 0 0 1 1 2 2 1 1 0 0 0 0 0 0 0
0 0 0 0 0 0 0 0 0 0 0 0 0 0 0 0 0 0 0 0 0 1 1 0 1 1 1 0 0 0 0 0 0 0 0 0 0 0 0 0 0 0 0 0
1 1 1 0 0 0 0 0 0 0 0 0 0 0 0 0 0 0 0 0 0 0 0 0 0 0 0 0 0 0 0 0 0 0 0 0 0 0 0 0 0 0 0 0
2 3 3 2 2 1 1 0 0 0 0 0 0 0 0 0 0 0 0 0 0 0 0 0 0 0 0 0 0 0 0 0 0 0 0 0 0 0 0 0 0 0 0 0
3 3 4 5 4 3 2 0 0 0 0 0 0 0 0 0 0 0 0 0 0 0 0 0 0 0 0 0 0 0 0 0 0 0 0 0 0 0 0 0 0 0 0 0
2 2 3 4 4 3 1 0 0 0 0 0 0 0 0 0 0 0 0 0 0 0 0 0 0 0 0 0 0 0 0 0 0 0 0 0 0 0 0 0 0 0 0 0
1 1 1 2 1 1 0 0 0 0 0 0 0 0 0 0 0 0 0 0 0 0 0 0 0 0 0 0 0 0 0 0 0 0 0 0 0 0 0 0 0 0 0 0
Wind_Speed
4 3 4 6 6 7 8 8 9 6 5 3 2 2 1 1 1 0 2 3 4 4 4 4 4 3 3 3 3 3 3 3 3 2 2 2 1 1 1 1 2 2 2 2
6 5 6 7 7 7 7 7 7 7 4 3 2 1 1 1 1 1 2 3 3 4 4 3 3 3 3 3 3 3 3 3 2 2 2 2 2 2 2 2 2 2 2 2
7 6 8 8 6 6 5 5 6 6 3 2 2 2 2 2 2 1 1 2 3 3 3 3 2 2 2 2 2 3 3 3 3 2 2 2 2 2 2 2 2 3 3 3
6 6 10 0 2 3 4 4 3 2 3 2 2 2 2 2 1 1 1 1 2 3 3 3 3 2 2 2 2 2 3 3 2 3 2 1 1 1 2 2 2 3 3 3
6 9 6 3 2 3 5 4 1 2 2 2 2 2 0 2 2 1 1 1 2 3 3 3 3 3 2 2 2 1 1 2 2 2 2 1 1 1 2 2 2 2 2 2
7 8 6 2 3 1 5 5 2 2 2 1 2 4 1 2 1 0 1 2 2 3 4 4 3 3 2 2 2 1 0 1 1 2 2 1 1 1 1 2 2 2 1 1
8 8 3 4 1 3 6 1 3 2 2 2 2 4 3 1 1 1 1 2 3 3 3 3 3 3 2 2 1 0 0 0 1 1 2 1 1 1 1 1 1 1 1 1
6 8 3 4 1 2 3 4 2 2 2 3 2 2 1 1 1 2 2 3 3 3 3 3 3 3 3 2 1 1 1 0 0 1 1 1 1 1 1 2 2 2 1 1
3 2 4 2 1 2 3 2 2 2 3 2 1 0 1 1 1 2 2 2 2 2 2 3 3 3 3 2 1 1 1 1 1 1 1 1 2 2 2 2 2 1 1 1
3 2 0 0 1 1 2 2 3 2 2 2 2 1 1 1 1 1 2 2 2 3 3 3 2 2 2 2 2 2 1 1 1 1 1 1 1 1 1 1 1 1 1 1
5 2 2 1 1 2 2 2 2 2 2 2 1 2 1 1 1 1 1 1 2 2 2 2 2 2 2 2 2 2 1 1 1 1 1 1 1 0 1 1 2 2 1 1
3 1 3 2 2 2 2 2 2 2 2 2 2 2 2 2 1 1 1 1 1 1 1 1 2 2 1 2 2 2 2 2 2 2 1 2 2 2 1 0 1 1 2 3
4 3 3 3 3 3 3 3 2 3 3 3 2 2 2 2 1 2 2 2 2 2 1 1 2 2 2 2 2 2 2 2 2 2 2 2 2 2 2 2 3 3 2 2
3 3 3 3 3 3 3 3 3 3 3 3 3 2 2 2 2 2 2 2 2 2 2 2 2 2 2 2 2 2 3 2 3 3 3 2 2 2 2 2 2 2 3 4
3 4 4 3 3 3 3 2 3 3 2 2 2 2 2 3 3 3 3 2 2 3 2 2 2 1 2 3 3 3 3 2 2 3 3 3 3 2 2 2 1 1 1 3
3 3 3 3 3 3 3 3 3 3 3 2 2 2 2 3 3 3 3 3 3 3 3 3 2 2 2 3 3 3 3 2 3 3 3 3 3 2 2 2 2 2 2 1
3 3 3 3 3 3 3 3 4 3 3 3 3 3 3 3 3 3 3 3 4 3 3 3 3 3 3 3 4 3 2 2 5 5 3 3 2 2 2 2 2 2 2 1
3 3 3 3 3 3 3 3 3 3 3 3 3 3 3 3 3 3 4 3 4 4 3 3 3 3 4 3 3 3 2 2 3 3 3 3 3 3 3 3 3 3 2 2
2 2 2 2 2 2 3 2 2 2 2 2 2 2 3 3 3 3 3 4 4 5 4 3 3 5 4 3 3 4 3 3 3 3 3 3 4 4 3 3 3 3 3 2
1 1 1 1 1 2 2 2 2 2 1 1 1 2 2 3 3 3 3 3 3 3 2 2 4 5 4 4 4 4 4 4 3 3 3 3 4 4 3 3 4 3 3 3
1 1 1 1 1 2 1 1 1 1 1 1 2 3 3 2 3 3 3 3 2 2 3 3 4 4 4 2 5 5 4 4 4 3 3 3 3 3 3 3 3 3 3 3
1 1 2 1 1 2 2 2 2 1 2 2 2 3 3 3 3 3 4 3 1 2 4 4 3 2 2 3 5 4 3 3 3 4 4 3 3 3 3 3 3 3 3 3
2 2 2 2 2 2 2 2 2 2 2 3 3 4 4 4 4 4 3 2 2 3 4 3 1 2 3 5 4 4 4 4 4 4 4 4 4 4 3 4 3 4 4 4
2 2 2 2 2 3 3 3 3 3 3 4 4 4 5 4 4 3 2 1 2 3 4 2 4 5 6 5 5 4 4 4 4 4 4 4 4 4 4 4 4 3 4 5
3 3 3 3 4 3 3 4 4 4 4 4 4 4 5 4 4 3 2 3 3 4 4 4 7 7 7 5 5 4 4 3 3 4 4 4 4 4 4 4 4 4 4 4
3 3 3 4 4 3 3 4 3 3 3 4 3 3 3 3 3 3 3 4 5 5 5 4 4 6 6 5 4 4 4 3 4 5 5 4 5 4 4 4 5 4 4 4
4 3 3 4 3 3 4 4 4 4 3 3 3 3 3 3 3 3 3 3 4 4 4 3 4 4 4 4 4 4 4 4 4 4 4 4 4 4 4 5 4 4 4 4
Wind_Direction
268 274 254 254 254 244 250 270 276 279 278 313 318 302 304 319 322 175 166 161 162 161 149 147 142 138 134 134 141 151 156 152 153 153 158 172 178 185 209 236 234 242 250 236
238 235 242 249 249 245 248 260 268 270 277 359 349 326 304 313 296 225 199 181 171 163 156 156 147 135 128 137 148 156 155 150 145 149 156 177 195 204 209 223 239 243 246 242
238 229 246 241 241 241 236 255 268 276 316 350 324 325 329 316 290 252 209 193 179 170 163 163 160 156 156 150 153 162 161 163 161 170 175 194 213 211 217 227 231 245 246 238
246 231 244 129 71 259 252 258 271 298 327 319 327 325 329 315 302 254 201 192 182 174 165 160 158 164 177 161 162 164 165 166 172 185 182 190 219 240 255 252 244 243 249 242
247 241 239 178 171 238 250 247 285 307 325 330 343 264 199 39 1 289 204 184 183 175 161 156 160 160 170 164 160 160 159 170 186 191 190 194 208 241 256 259 250 243 245 245
243 256 252 112 89 277 255 224 83 340 323 321 280 262 59 53 26 66 146 155 165 166 156 156 161 160 166 164 155 154 174 205 199 199 196 208 225 240 232 240 244 252 247 249
245 251 243 61 43 237 244 11 46 333 311 280 305 347 28 65 114 125 143 156 158 158 153 149 150 160 175 176 169 145 162 210 179 192 202 198 203 228 245 237 220 225 209 212
243 246 216 79 172 259 358 7 356 333 323 319 345 11 45 85 114 127 126 137 143 142 138 141 151 163 168 169 164 142 123 114 130 200 238 172 188 207 231 242 199 181 192 217
284 344 56 77 35 25 357 334 330 324 326 304 283 282 137 134 140 147 136 137 148 144 143 148 161 173 170 160 160 155 154 164 201 216 233 216 206 195 204 215 232 227 226 235
238 202 150 71 65 1 326 319 322 310 296 278 261 224 167 156 146 158 156 154 161 169 161 155 159 168 164 161 172 173 182 196 200 203 212 187 225 223 237 231 227 239 256 268
241 252 256 176 326 331 327 317 317 316 290 275 262 240 213 202 181 182 170 164 179 186 174 166 161 168 167 165 184 198 203 209 225 224 204 206 209 302 285 356 357 308 302 291
263 257 268 273 300 301 302 306 311 304 302 299 278 257 229 214 199 189 175 163 179 196 191 188 179 175 180 187 191 208 226 227 232 238 239 230 199 181 113 217 123 208 307 310
272 275 279 273 278 284 286 288 281 271 267 268 269 258 233 221 212 196 185 194 201 215 211 216 205 198 189 192 203 215 239 244 258 256 249 250 239 227 203 175 180 188 207 244
256 253 246 249 274 284 289 287 282 271 256 248 250 241 229 217 213 221 223 221 218 223 225 227 221 215 205 199 210 225 238 214 239 243 243 248 255 254 245 236 210 183 179 190
251 260 258 259 267 271 279 278 272 267 258 244 237 235 226 225 225 233 233 226 224 227 236 240 237 241 219 207 210 220 242 237 240 253 245 240 244 247 241 238 255 250 186 158
253 252 248 249 258 267 271 273 273 269 258 247 243 250 242 240 239 235 232 233 232 234 237 249 248 253 240 228 218 218 224 228 249 256 247 239 239 245 246 239 236 248 260 227
240 241 244 249 255 263 273 277 277 271 260 252 252 254 247 239 238 239 239 240 244 246 242 245 244 236 229 230 236 234 231 198 209 239 242 245 255 266 268 265 261 257 263 37
245 248 248 257 266 263 264 274 281 282 278 266 255 249 244 244 247 250 248 244 239 237 236 233 230 225 225 224 239 258 246 234 225 235 235 238 249 253 259 262 260 268 263 187
240 233 228 244 255 255 264 278 279 280 279 266 251 254 255 254 253 254 245 234 233 235 232 219 209 228 229 227 242 239 243 239 231 235 237 220 236 245 252 262 261 261 270 262
234 237 242 251 254 259 273 280 275 279 294 297 267 259 261 262 259 250 238 237 246 261 232 216 219 226 226 211 234 243 236 238 242 240 238 237 240 245 248 256 264 268 269 271
262 250 248 254 260 263 265 270 284 299 308 281 265 262 258 255 254 244 236 235 220 245 237 212 226 226 223 220 225 240 231 232 243 250 249 250 251 252 254 257 265 270 270 272
266 251 236 236 256 274 276 272 273 273 263 260 271 275 260 245 243 243 244 255 231 209 239 230 228 219 237 242 236 238 233 236 244 248 248 246 246 250 254 261 267 270 270 270
242 242 243 244 254 267 269 267 268 263 262 265 265 262 266 268 261 254 245 229 233 211 242 248 206 160 214 234 238 233 232 238 246 246 242 236 238 243 248 252 258 266 272 271
245 243 253 261 258 253 257 263 269 267 265 264 264 263 262 259 254 256 270 213 220 224 246 205 176 194 222 236 235 234 233 236 242 245 242 236 234 238 244 249 250 253 261 269
254 255 257 261 260 259 258 255 257 260 262 260 260 261 263 262 266 270 263 242 213 225 239 204 196 208 226 237 234 234 236 240 254 263 258 256 251 242 240 244 246 247 249 255
262 259 260 261 268 271 267 260 259 265 269 268 264 261 264 261 259 260 251 238 229 226 237 228 209 211 224 232 237 238 242 235 235 243 252 257 258 256 253 251 247 246 248 253
262 255 249 252 260 269 271 265 262 263 265 269 276 275 269 266 264 265 259 250 237 230 230 230 230 227 226 224 227 232 236 238 241 246 250 254 259 258 256 255 255 255 256 256